Track FLOCK 3P 28 now! 10-day predictions FLOCK 3P 28 is classified as:
1 41960U 17008N 19054.11404089 .00002012 00000-0 83075-4 0 9994 2 41960 97.4200 122.1598 0008532 176.8096 183.3198 15.25161242112261